period_start,C,m1,H,J0,J1,J2,J3,J4,J5,JA,JB,JC,JD,JJ,JK,JN,#
2014-05-26 00:01:59,0.00,0.19,0.00,25.82,29.81,32.49,9.01,37.93,1016.63,2028.83,3459.33,3267.66,3559.95,473.04,465.52,0.01,0000 0000 0000 0000 000000
2014-05-26 00:07:00,0.00,0.00,0.00,25.84,29.78,32.51,9.46,40.10,1016.63,2028.99,3515.62,3308.19,3605.96,500.22,492.26,0.05,0000 0000 0000 0000 000000
2014-05-26 00:12:01,0.01,0.00,0.00,25.85,29.77,32.46,9.52,40.17,1016.66,2028.99,3515.02,3308.15,3605.42,500.27,492.20,0.09,0000 0000 0000 0000 000000
2014-05-26 00:17:02,0.00,0.00,0.00,25.88,29.74,32.45,9.53,40.10,1016.64,2028.99,3515.00,3308.39,3605.11,499.90,491.78,0.13,0000 0000 0000 0000 000000
2014-05-26 00:22:03,0.00,0.00,0.00,25.88,29.72,32.42,9.54,39.93,1016.64,2028.99,3514.97,3308.53,3605.03,500.16,492.09,0.17,0000 0000 0000 0000 000000
2014-05-26 00:27:05,0.00,0.00,0.00,25.87,29.69,32.39,9.44,39.85,1016.64,2029.00,3514.96,3308.84,3605.04,500.09,492.01,0.21,0000 0000 0000 0000 000000
2014-05-26 00:32:06,0.00,0.00,0.00,25.90,29.66,32.36,9.56,39.88,1016.64,2029.02,3514.95,3308.97,3605.04,500.35,492.25,0.26,0000 0000 0000 0000 000000
2014-05-26 00:37:07,0.02,0.00,0.00,25.93,29.64,32.33,9.54,40.17,1016.63,2029.17,3514.97,3308.99,3605.12,500.35,492.19,0.30,0000 0000 0000 0000 000000
2014-05-26 00:42:08,0.01,0.00,0.00,25.85,29.62,32.14,9.47,39.84,1016.63,2029.58,3514.99,3308.99,3605.34,500.08,491.99,0.34,0000 0000 0000 0000 000000
2014-05-26 00:47:09,0.02,0.00,0.00,25.62,29.60,31.99,9.47,39.96,1016.64,2029.82,3514.94,3309.00,3605.35,500.00,492.37,0.38,0000 0000 0000 0000 000000
2014-05-26 00:52:10,0.01,0.00,0.00,25.51,29.57,31.96,9.51,39.92,1016.64,2029.92,3514.68,3309.00,3605.17,500.08,492.68,0.42,0000 0000 0000 0000 000000
2014-05-26 00:57:11,0.00,0.00,0.00,25.49,29.55,31.94,9.54,40.09,1016.62,2029.97,3514.40,3309.00,3605.26,500.23,492.76,0.47,0000 0000 0000 0000 000000
2014-05-26 01:02:12,0.00,0.00,0.00,25.47,29.53,31.92,9.46,40.02,1016.62,2029.98,3514.31,3309.00,3605.17,499.83,492.45,0.51,0000 0000 0000 0000 000000
2014-05-26 01:07:13,0.00,0.00,0.00,25.45,29.52,31.91,9.43,39.91,1016.62,2029.99,3514.31,3309.03,3605.21,500.04,492.60,0.55,0000 0000 0000 0000 000000
2014-05-26 01:12:14,0.00,0.00,0.00,25.45,29.50,31.91,9.53,39.90,1016.62,2029.99,3514.04,3309.01,3605.04,500.10,492.67,0.59,0000 0000 0000 0000 000000
2014-05-26 01:17:16,0.00,0.00,0.00,25.45,29.50,31.90,9.50,39.95,1016.68,2029.99,3514.00,3309.00,3605.00,500.01,492.67,0.63,0000 0000 0000 0000 000000
2014-05-26 01:22:17,0.00,0.00,0.00,25.45,29.47,31.90,9.45,39.67,1016.77,2029.99,3513.98,3309.00,3604.99,499.80,492.42,0.67,0000 0000 0000 0000 000000
2014-05-26 01:27:18,0.00,0.00,0.00,25.46,29.47,31.89,9.55,40.01,1016.75,2029.99,3513.95,3309.00,3604.98,499.82,492.63,0.72,0000 0000 0000 0000 000000
2014-05-26 01:32:19,0.01,0.00,0.00,25.47,29.46,31.88,9.48,39.87,1016.71,2029.99,3513.72,3308.98,3604.95,499.72,492.30,0.76,0000 0000 0000 0000 000000
2014-05-26 01:37:20,0.01,0.00,0.00,25.47,29.45,31.88,9.52,40.05,1016.80,2029.99,3513.13,3308.97,3604.78,500.10,492.75,0.80,0000 0000 0000 0000 000000
2014-05-26 01:42:21,0.00,0.00,0.00,25.47,29.45,31.86,9.42,39.83,1017.00,2030.00,3513.02,3308.96,3604.54,499.81,492.55,0.84,0000 0000 0000 0000 000000
2014-05-26 01:47:22,0.01,0.00,0.00,25.49,29.45,31.87,9.43,39.75,1017.09,2030.02,3513.00,3308.92,3604.14,499.64,492.47,0.88,0000 0000 0000 0000 000000
2014-05-26 01:52:22,0.01,0.00,0.00,25.50,29.44,31.87,9.45,39.73,1017.09,2030.01,3512.99,3308.76,3604.05,499.69,492.46,0.93,0000 0000 0000 0000 000000
2014-05-26 01:57:24,0.00,0.00,0.00,25.49,29.43,31.88,9.46,39.83,1017.09,2030.00,3512.93,3308.48,3604.00,500.00,492.62,0.97,0000 0000 0000 0000 000000
2014-05-26 02:02:25,0.01,0.00,0.00,25.50,29.42,31.87,9.49,39.88,1017.10,2030.02,3512.72,3308.34,3604.00,500.17,492.77,1.01,0000 0000 0000 0000 000000
2014-05-26 02:07:26,0.01,0.00,0.00,25.50,29.42,31.87,9.45,39.79,1017.09,2030.04,3512.17,3308.15,3604.00,499.69,492.45,1.05,0000 0000 0000 0000 000000
2014-05-26 02:12:28,0.01,0.01,0.00,25.50,29.42,31.88,9.51,39.73,1017.10,2030.06,3512.01,3308.04,3603.95,500.20,492.92,1.09,0000 0000 0000 0000 000000
2014-05-26 02:17:28,0.01,0.01,0.00,25.50,29.42,31.88,9.54,39.70,1017.09,2030.07,3512.00,3308.00,3603.72,500.10,492.84,1.13,0000 0000 0000 0000 000000
2014-05-26 02:22:30,0.02,0.01,0.00,25.50,29.42,31.88,9.44,39.63,1017.10,2030.10,3511.69,3308.00,3603.15,499.73,492.46,1.18,0000 0000 0000 0000 000000
2014-05-26 02:27:30,0.02,0.01,0.00,25.49,29.42,31.88,9.44,39.89,1017.09,2030.08,3511.06,3307.97,3603.00,500.00,492.82,1.22,0000 0000 0000 0000 000000
2014-05-26 02:32:31,0.00,0.01,0.00,25.49,29.42,31.89,9.52,39.68,1017.07,2030.11,3511.00,3307.79,3602.99,500.12,492.85,1.26,0000 0000 0000 0000 000000
2014-05-26 02:37:33,0.03,0.01,0.00,25.50,29.42,31.89,9.43,39.63,1017.03,2030.10,3510.73,3307.19,3602.78,499.57,492.28,1.30,0000 0000 0000 0000 000000
2014-05-26 02:42:33,0.03,0.01,0.00,25.49,29.42,31.89,9.53,39.71,1016.86,2030.09,3510.04,3307.00,3602.08,500.27,492.96,1.34,0000 0000 0000 0000 000000
2014-05-26 02:47:35,0.00,0.01,0.00,25.47,29.42,31.89,9.48,39.63,1016.83,2030.14,3510.00,3307.00,3602.00,500.12,492.88,1.39,0000 0000 0000 0000 000000
2014-05-26 02:52:36,0.02,0.01,0.00,25.47,29.42,31.89,9.46,39.60,1016.73,2030.09,3509.52,3306.90,3601.96,499.63,492.43,1.43,0000 0000 0000 0000 000000
2014-05-26 02:57:37,0.03,0.01,0.00,25.47,29.42,31.89,9.51,39.73,1016.64,2030.16,3509.02,3306.60,3601.75,500.15,492.80,1.47,0000 0000 0000 0000 000000
2014-05-26 03:02:38,0.01,0.01,0.00,25.47,29.42,31.89,9.54,40.02,1016.63,2030.19,3508.98,3306.08,3601.11,500.25,492.87,1.51,0000 0000 0000 0000 000000
2014-05-26 03:07:39,0.03,0.01,0.00,25.47,29.42,31.89,9.44,40.08,1016.64,2030.34,3508.36,3306.00,3601.00,499.98,492.45,1.55,0000 0000 0000 0000 000000
2014-05-26 03:12:40,0.00,0.01,0.00,25.48,29.42,31.89,9.57,40.05,1016.64,2030.33,3508.01,3305.99,3600.97,500.22,492.83,1.59,0000 0000 0000 0000 000000
2014-05-26 03:17:41,0.02,0.01,0.00,25.48,29.42,31.90,9.50,40.03,1016.65,2030.23,3507.84,3305.77,3600.47,500.04,492.48,1.64,0000 0000 0000 0000 000000
2014-05-26 03:22:42,0.03,0.02,0.00,25.47,29.42,31.88,9.59,40.20,1016.71,2030.20,3507.11,3305.16,3600.04,500.18,492.83,1.68,0000 0000 0000 0000 000000
2014-05-26 03:27:43,0.01,0.02,0.00,25.47,29.42,31.88,9.57,40.05,1016.73,2030.24,3507.00,3305.02,3600.00,499.95,492.56,1.72,0000 0000 0000 0000 000000
2014-05-26 03:32:44,-0.01,0.02,0.00,25.45,29.42,31.88,9.42,39.99,1016.75,2030.21,3506.94,3305.00,3599.95,499.88,492.55,1.76,0000 0000 0000 0000 000000
2014-05-26 03:37:45,0.02,0.02,0.00,25.45,29.42,31.88,9.47,39.98,1016.80,2030.21,3506.28,3304.98,3599.77,499.98,492.75,1.80,0000 0000 0000 0000 000000
2014-05-26 03:42:46,0.01,0.02,0.00,25.45,29.42,31.88,9.50,39.93,1016.70,2030.22,3506.02,3304.83,3599.19,499.60,492.45,1.85,0000 0000 0000 0000 000000
2014-05-26 03:47:48,0.03,0.02,0.00,25.44,29.42,31.87,9.57,40.02,1016.65,2030.28,3505.98,3304.54,3599.01,500.14,492.63,1.89,0000 0000 0000 0000 000000
2014-05-26 03:52:48,0.05,0.02,0.00,25.44,29.42,31.88,9.54,39.80,1016.67,2030.69,3505.91,3304.32,3599.00,499.75,492.50,1.93,0000 0000 0000 0000 000000
2014-05-26 03:57:49,0.01,0.02,0.00,25.44,29.42,31.87,9.44,39.89,1016.65,2030.59,3505.27,3304.04,3598.99,499.74,492.49,1.97,0000 0000 0000 0000 000000
2014-05-26 04:02:50,0.01,0.02,0.00,25.43,29.41,31.87,9.53,39.92,1016.63,2030.51,3505.01,3304.00,3598.80,500.31,492.82,2.01,0000 0000 0000 0000 000000
2014-05-26 04:07:52,0.01,0.02,0.00,25.42,29.41,31.87,9.47,39.78,1016.63,2030.54,3504.93,3304.00,3598.16,499.96,492.48,2.06,0000 0000 0000 0000 000000
2014-05-26 04:12:53,0.02,0.02,0.00,25.42,29.40,31.86,9.42,39.86,1016.64,2030.59,3504.39,3303.91,3598.00,500.04,492.87,2.10,0000 0000 0000 0000 000000
2014-05-26 04:17:54,-0.00,0.02,0.00,25.42,29.40,31.86,9.49,39.87,1016.65,2030.39,3504.03,3303.57,3598.00,499.67,492.34,2.14,0000 0000 0000 0000 000000
2014-05-26 04:22:55,0.03,0.02,0.00,25.42,29.40,31.87,9.46,39.88,1016.74,2030.62,3504.00,3303.41,3597.99,499.82,492.61,2.18,0000 0000 0000 0000 000000
2014-05-26 04:27:56,0.02,0.02,0.00,25.41,29.40,31.85,9.56,39.94,1016.71,2030.82,3503.99,3303.25,3597.98,499.87,492.62,2.22,0000 0000 0000 0000 000000
2014-05-26 04:32:57,0.01,0.03,0.00,25.41,29.40,31.86,9.59,39.96,1016.64,2030.83,3503.92,3303.03,3597.76,500.26,493.01,2.26,0000 0000 0000 0000 000000
2014-05-26 04:37:59,-0.01,0.03,0.00,25.40,29.40,31.86,9.52,39.76,1016.79,2030.61,3503.25,3303.00,3597.18,500.10,492.89,2.31,0000 0000 0000 0000 000000
2014-05-26 04:43:00,0.03,0.03,0.00,25.40,29.40,31.85,9.47,39.72,1016.80,2030.75,3503.00,3302.99,3597.02,500.35,493.11,2.35,0000 0000 0000 0000 000000
2014-05-26 04:48:01,0.02,0.03,0.00,25.40,29.40,31.86,9.47,39.87,1016.69,2030.91,3503.00,3302.97,3597.01,500.20,492.85,2.39,0000 0000 0000 0000 000000
2014-05-26 04:53:02,0.01,0.03,0.00,25.40,29.40,31.85,9.43,39.68,1016.66,2030.92,3502.92,3302.92,3597.00,499.67,492.46,2.43,0000 0000 0000 0000 000000
2014-05-26 04:58:03,0.01,0.03,0.00,25.40,29.40,31.85,9.44,39.73,1016.70,2030.87,3502.60,3302.65,3596.97,499.94,492.66,2.47,0000 0000 0000 0000 000000
2014-05-26 05:03:04,0.01,0.03,0.00,25.40,29.40,31.85,9.55,39.91,1016.75,2030.83,3502.14,3302.29,3596.89,500.27,493.08,2.51,0000 0000 0000 0000 000000
2014-05-26 05:08:05,0.01,0.03,0.00,25.40,29.39,31.84,9.51,39.70,1016.71,2030.92,3502.01,3302.17,3596.76,500.13,492.75,2.56,0000 0000 0000 0000 000000
2014-05-26 05:13:06,0.01,0.03,0.00,25.40,29.38,31.85,9.51,39.78,1016.67,2030.91,3502.01,3302.08,3596.44,500.09,492.73,2.60,0000 0000 0000 0000 000000
2014-05-26 05:18:07,0.01,0.03,0.00,25.40,29.38,31.85,9.45,39.72,1016.69,2030.93,3501.99,3302.01,3596.04,499.78,492.39,2.64,0000 0000 0000 0000 000000
2014-05-26 05:23:08,0.00,0.03,0.00,25.40,29.37,31.83,9.49,39.71,1016.64,2030.92,3501.93,3302.00,3596.00,499.59,492.24,2.68,0000 0000 0000 0000 000000
2014-05-26 05:28:10,0.01,0.03,0.00,25.40,29.37,31.82,9.51,39.74,1016.63,2030.96,3501.56,3302.00,3596.00,499.98,492.70,2.72,0000 0000 0000 0000 000000
2014-05-26 05:33:11,0.00,0.03,0.00,25.40,29.37,31.83,9.41,39.70,1016.63,2030.97,3501.08,3302.00,3596.00,499.57,492.32,2.77,0000 0000 0000 0000 000000
2014-05-26 05:38:12,0.00,0.03,0.00,25.41,29.37,31.83,9.49,40.00,1016.63,2030.96,3501.00,3301.90,3595.90,500.07,492.81,2.81,0000 0000 0000 0000 000000
2014-05-26 05:43:12,0.03,0.03,0.00,25.42,29.37,31.82,9.51,39.69,1016.63,2030.97,3500.79,3301.53,3595.46,499.83,492.54,2.85,0000 0000 0000 0000 000000
2014-05-26 05:48:13,0.02,0.03,0.00,25.43,29.37,31.83,9.56,39.88,1016.62,2030.95,3500.13,3301.05,3595.02,500.07,492.81,2.89,0000 0000 0000 0000 000000
2014-05-26 05:53:14,0.00,0.03,0.00,25.44,29.37,31.84,9.42,39.63,1016.62,2030.96,3500.00,3301.00,3595.00,499.51,492.27,2.93,0000 0000 0000 0000 000000
2014-05-26 05:58:24,0.01,0.03,0.00,25.46,29.37,31.83,9.48,39.87,1016.62,2030.96,3499.77,3300.98,3594.91,499.80,492.51,2.97,0000 0000 0000 0000 000000
2014-05-26 06:03:26,0.02,0.03,0.00,25.47,29.37,31.82,9.51,39.76,1016.62,2030.97,3499.06,3300.82,3594.27,500.38,492.71,3.02,0000 0000 0000 0000 000000
2014-05-26 06:08:27,0.01,0.04,0.00,25.52,29.37,31.82,9.51,39.82,1016.62,2030.96,3499.00,3300.21,3594.03,500.38,492.86,3.06,0000 0000 0000 0000 000000
2014-05-26 06:13:28,0.01,0.04,0.00,25.59,29.40,31.81,9.48,39.90,1016.62,2030.94,3498.68,3300.00,3593.97,500.43,492.66,3.10,0000 0000 0000 0000 000000
2014-05-26 06:18:29,0.02,0.04,0.00,25.61,29.40,31.80,9.49,39.75,1016.62,2030.94,3498.03,3299.91,3593.44,500.23,492.58,3.14,0000 0000 0000 0000 000000
2014-05-26 06:23:30,0.01,0.04,0.00,25.64,29.42,31.82,9.50,39.92,1016.62,2030.79,3497.78,3299.17,3593.01,500.07,492.32,3.18,0000 0000 0000 0000 000000
2014-05-26 06:28:32,-0.02,0.04,0.00,25.67,29.44,31.83,9.50,39.71,1016.62,2030.40,3497.06,3299.00,3592.67,499.97,492.25,3.23,0000 0000 0000 0000 000000
2014-05-26 06:33:33,0.02,0.04,0.00,25.67,29.46,31.85,9.49,39.79,1016.63,2030.18,3496.78,3298.70,3592.05,499.99,492.38,3.27,0000 0000 0000 0000 000000
2014-05-26 06:38:34,0.02,0.04,0.00,25.67,29.47,31.88,9.47,39.79,1016.64,2030.05,3496.05,3298.05,3591.73,499.98,492.22,3.31,0000 0000 0000 0000 000000
2014-05-26 06:43:35,0.02,0.04,0.00,25.67,29.50,31.90,9.43,39.63,1016.63,2030.00,3495.78,3297.92,3591.03,499.89,492.22,3.35,0000 0000 0000 0000 000000
2014-05-26 06:48:36,0.03,0.04,0.00,25.67,29.52,31.93,9.52,39.75,1016.63,2030.00,3495.04,3297.27,3590.88,499.97,492.36,3.39,0000 0000 0000 0000 000000
2014-05-26 06:53:38,0.02,0.04,0.00,25.67,29.54,31.95,9.51,39.62,1016.62,2030.00,3494.75,3297.00,3590.15,500.55,492.76,3.43,0000 0000 0000 0000 000000
2014-05-26 06:58:39,0.02,0.04,0.00,25.66,29.56,31.97,9.51,39.81,1016.63,2030.00,3494.05,3296.71,3589.95,500.43,492.75,3.48,0000 0000 0000 0000 000000
2014-05-26 07:03:40,0.03,0.04,0.00,25.65,29.57,31.98,9.44,39.82,1016.64,2029.99,3493.56,3296.05,3589.25,500.06,492.09,3.52,0000 0000 0000 0000 000000
2014-05-26 07:08:41,0.00,0.05,0.00,25.64,29.60,32.01,9.52,39.70,1016.65,2029.99,3493.03,3296.00,3589.00,500.24,492.51,3.56,0000 0000 0000 0000 000000
2014-05-26 07:13:42,0.04,0.05,0.00,25.63,29.60,32.02,9.40,39.78,1016.69,2029.96,3492.60,3295.66,3588.67,499.47,491.84,3.60,0000 0000 0000 0000 000000
2014-05-26 07:18:43,0.01,0.05,0.00,25.61,29.62,32.04,9.46,39.96,1016.74,2029.92,3492.01,3295.03,3588.03,499.89,492.31,3.64,0000 0000 0000 0000 000000
2014-05-26 07:23:44,0.02,0.05,0.00,25.60,29.63,32.05,9.51,39.76,1016.73,2029.87,3491.61,3294.94,3587.93,500.13,492.68,3.69,0000 0000 0000 0000 000000
2014-05-26 07:28:46,0.03,0.05,0.00,25.59,29.65,32.06,9.46,39.79,1016.83,2029.81,3491.02,3294.35,3587.25,499.22,491.90,3.73,0000 0000 0000 0000 000000
2014-05-26 07:33:47,-0.00,0.05,0.00,25.57,29.65,32.07,9.46,39.80,1016.73,2029.61,3490.63,3294.01,3587.00,499.80,492.35,3.77,0000 0000 0000 0000 000000
2014-05-26 07:38:48,0.01,0.05,0.00,25.55,29.67,32.08,9.40,39.80,1016.67,2029.62,3490.03,3293.98,3586.83,499.44,491.99,3.81,0000 0000 0000 0000 000000
2014-05-26 07:43:49,-0.00,0.05,0.00,25.55,29.67,32.09,9.50,39.87,1016.70,2029.25,3489.65,3293.38,3586.09,500.11,492.52,3.85,0000 0000 0000 0000 000000
2014-05-26 07:48:50,0.01,0.05,0.00,25.52,29.67,32.10,9.49,39.83,1016.76,2029.19,3489.06,3293.01,3586.00,499.98,492.38,3.89,0000 0000 0000 0000 000000
2014-05-26 07:53:51,0.01,0.05,0.00,25.51,29.69,32.09,9.50,39.74,1016.69,2029.15,3488.77,3292.96,3585.51,500.33,492.89,3.94,0000 0000 0000 0000 000000
2014-05-26 07:58:52,0.03,0.05,0.00,25.50,29.70,32.10,9.50,39.81,1016.68,2029.09,3488.05,3292.38,3585.03,499.87,492.59,3.98,0000 0000 0000 0000 000000
2014-05-26 08:03:53,0.01,0.05,0.00,25.50,29.70,32.12,9.51,39.82,1016.69,2029.08,3487.75,3292.01,3584.87,499.98,492.63,4.02,0000 0000 0000 0000 000000
2014-05-26 08:08:54,0.02,0.05,0.00,25.48,29.70,32.10,9.44,39.72,1016.74,2029.06,3487.04,3291.99,3584.16,499.69,492.36,4.06,0000 0000 0000 0000 000000
2014-05-26 08:13:55,0.03,0.05,0.00,25.47,29.70,32.10,9.50,39.79,1016.82,2029.03,3486.70,3291.46,3584.00,500.08,492.76,4.10,0000 0000 0000 0000 000000
2014-05-26 08:18:57,0.02,0.06,0.00,25.45,29.70,32.11,9.49,39.84,1016.80,2029.04,3486.02,3291.02,3583.67,500.37,493.02,4.15,0000 0000 0000 0000 000000
2014-05-26 08:23:58,0.02,0.06,0.00,25.44,29.70,32.10,9.45,39.59,1016.81,2029.01,3485.46,3290.96,3583.03,499.84,492.57,4.19,0000 0000 0000 0000 000000
2014-05-26 08:28:59,0.02,0.06,0.00,25.42,29.70,32.11,9.52,39.82,1016.80,2029.05,3485.01,3290.42,3583.00,500.05,492.87,4.23,0000 0000 0000 0000 000000
2014-05-26 08:34:00,0.03,0.06,0.00,25.40,29.70,32.10,9.51,39.94,1016.80,2029.11,3484.64,3290.02,3582.95,499.55,492.49,4.27,0000 0000 0000 0000 000000
2014-05-26 08:39:01,0.02,0.06,0.00,25.39,29.70,32.09,9.50,39.64,1016.70,2029.15,3484.03,3289.99,3582.20,499.81,492.64,4.31,0000 0000 0000 0000 000000
2014-05-26 08:44:02,0.01,0.06,0.00,25.37,29.70,32.09,9.56,39.72,1016.71,2029.11,3483.75,3289.73,3582.00,500.33,493.10,4.35,0000 0000 0000 0000 000000
2014-05-26 08:49:04,0.03,0.06,0.00,25.35,29.69,32.09,9.46,39.88,1016.65,2029.06,3483.03,3289.07,3581.73,499.66,492.42,4.40,0000 0000 0000 0000 000000
2014-05-26 08:54:05,0.02,0.06,0.00,25.33,29.68,32.08,9.48,39.58,1016.66,2029.08,3482.78,3289.00,3581.12,499.89,492.64,4.44,0000 0000 0000 0000 000000
2014-05-26 08:59:05,0.01,0.06,0.00,25.31,29.67,32.07,9.48,39.58,1016.76,2029.08,3482.08,3288.93,3581.00,499.70,492.62,4.48,0000 0000 0000 0000 000000
2014-05-26 09:04:07,0.02,0.06,0.00,25.30,29.67,32.07,9.53,39.71,1016.78,2029.07,3481.99,3288.40,3580.92,499.78,492.89,4.52,0000 0000 0000 0000 000000
2014-05-26 09:09:08,0.03,0.07,0.00,25.29,29.67,32.07,9.51,39.63,1016.82,2029.10,3481.42,3288.06,3580.38,500.17,493.15,4.56,0000 0000 0000 0000 000000
2014-05-26 09:14:09,-0.00,0.07,0.00,25.27,29.65,32.07,9.55,39.71,1016.76,2029.06,3481.01,3288.00,3580.01,500.27,493.28,4.61,0000 0000 0000 0000 000000
2014-05-26 09:19:10,0.02,0.07,0.00,25.25,29.65,32.05,9.56,39.70,1016.71,2029.20,3480.85,3287.98,3579.99,500.45,493.54,4.65,0000 0000 0000 0000 000000
2014-05-26 09:24:11,0.04,0.07,0.00,25.25,29.65,32.04,9.51,39.64,1016.74,2029.32,3480.14,3287.78,3579.88,499.96,492.85,4.69,0000 0000 0000 0000 000000
2014-05-26 09:29:12,0.04,0.07,0.00,25.23,29.64,32.05,9.46,39.50,1016.87,2029.37,3479.99,3287.10,3579.15,499.59,492.68,4.73,0000 0000 0000 0000 000000
2014-05-26 09:34:13,0.02,0.07,0.00,25.20,29.62,32.04,9.54,39.49,1016.86,2029.48,3479.71,3287.02,3579.00,500.00,493.11,4.77,0000 0000 0000 0000 000000
2014-05-26 09:39:15,0.01,0.07,0.00,25.19,29.62,32.02,9.45,39.48,1016.87,2029.43,3479.04,3286.98,3578.96,499.86,493.21,4.81,0000 0000 0000 0000 000000
2014-05-26 09:44:15,0.03,0.07,0.00,25.17,29.61,32.00,9.44,39.58,1016.92,2029.54,3478.90,3286.76,3578.51,499.97,492.97,4.86,0000 0000 0000 0000 000000
2014-05-26 09:49:16,0.04,0.07,0.00,25.15,29.60,32.00,9.50,39.42,1016.93,2029.52,3478.13,3286.14,3578.03,499.70,492.94,4.90,0000 0000 0000 0000 000000
2014-05-26 09:54:17,0.01,0.08,0.00,25.13,29.60,32.01,9.49,39.60,1016.99,2029.65,3478.00,3286.00,3578.00,499.82,493.17,4.94,0000 0000 0000 0000 000000
2014-05-26 09:59:19,0.02,0.08,0.00,25.12,29.58,31.99,9.49,39.58,1016.98,2029.73,3477.78,3285.99,3577.95,499.46,492.73,4.98,0000 0000 0000 0000 000000
2014-05-26 10:04:20,0.03,0.08,0.00,25.10,29.57,31.98,9.52,39.67,1016.91,2029.85,3477.12,3285.94,3577.47,499.94,493.16,5.02,0000 0000 0000 0000 000000
2014-05-26 10:09:21,0.03,0.08,0.00,25.08,29.56,31.97,9.54,39.53,1016.86,2029.91,3476.99,3285.63,3577.02,500.19,493.58,5.07,0000 0000 0000 0000 000000
2014-05-26 10:14:22,0.02,0.08,0.00,25.07,29.55,31.96,9.51,39.48,1017.02,2029.96,3476.58,3285.15,3577.00,500.24,493.78,5.11,0000 0000 0000 0000 000000
2014-05-26 10:19:23,0.01,0.08,0.00,25.05,29.54,31.95,9.57,39.63,1017.00,2029.97,3476.03,3285.01,3576.98,500.35,493.88,5.15,0000 0000 0000 0000 000000
2014-05-26 10:24:24,0.00,0.08,0.00,25.04,29.52,31.94,9.50,39.48,1016.93,2029.98,3476.00,3285.00,3576.85,499.87,493.32,5.19,0000 0000 0000 0000 000000
2014-05-26 10:29:25,0.02,0.08,0.00,25.02,29.51,31.93,9.54,39.71,1016.82,2029.99,3475.59,3284.98,3576.17,500.11,493.65,5.23,0000 0000 0000 0000 000000
2014-05-26 10:34:26,0.01,0.08,0.00,25.00,29.50,31.93,9.50,39.67,1016.85,2029.99,3475.04,3284.85,3576.00,499.90,493.43,5.27,0000 0000 0000 0000 000000
2014-05-26 10:39:27,0.01,0.08,0.00,24.99,29.49,31.91,9.51,39.60,1016.97,2029.99,3474.99,3284.38,3576.00,499.91,493.45,5.32,0000 0000 0000 0000 000000
2014-05-26 10:44:28,0.01,0.08,0.00,24.97,29.47,31.90,9.58,39.73,1017.07,2029.99,3474.72,3284.05,3575.99,500.22,493.91,5.36,0000 0000 0000 0000 000000
2014-05-26 10:49:29,0.01,0.08,0.00,24.96,29.46,31.88,9.50,39.57,1017.10,2030.00,3474.08,3284.01,3575.88,500.15,493.82,5.40,0000 0000 0000 0000 000000
2014-05-26 10:54:30,0.01,0.08,0.00,24.94,29.45,31.87,9.53,39.54,1017.10,2030.00,3474.00,3284.00,3575.31,500.30,494.05,5.44,0000 0000 0000 0000 000000
2014-05-26 10:59:32,0.00,0.08,0.00,24.92,29.43,31.85,9.49,39.47,1017.10,2030.01,3473.95,3283.98,3575.04,499.81,493.55,5.48,0000 0000 0000 0000 000000
2014-05-26 11:04:33,0.01,0.09,0.00,24.90,29.42,31.84,9.44,39.49,1017.10,2030.03,3473.46,3283.96,3575.00,499.38,493.41,5.52,0000 0000 0000 0000 000000
2014-05-26 11:09:34,0.01,0.09,0.00,24.89,29.40,31.84,9.52,39.55,1017.10,2030.05,3473.01,3283.65,3574.99,499.88,493.74,5.57,0000 0000 0000 0000 000000
2014-05-26 11:14:35,0.02,0.09,0.00,24.87,29.40,31.82,9.53,39.38,1017.10,2030.07,3472.96,3283.16,3574.66,500.18,494.00,5.61,0000 0000 0000 0000 000000
2014-05-26 11:19:36,0.02,0.09,0.00,24.86,29.37,31.80,9.52,39.40,1017.10,2030.07,3472.49,3283.01,3574.10,499.72,493.47,5.65,0000 0000 0000 0000 000000
2014-05-26 11:24:38,0.03,0.09,0.00,24.84,29.36,31.81,9.50,39.54,1017.10,2030.24,3472.06,3283.00,3574.03,499.62,493.71,5.69,0000 0000 0000 0000 000000
2014-05-26 11:29:39,0.04,0.09,0.00,24.82,29.35,31.82,9.53,39.52,1017.10,2030.59,3472.00,3282.99,3574.00,499.68,493.60,5.73,0000 0000 0000 0000 000000
2014-05-26 11:34:41,0.02,0.09,0.00,24.80,29.33,31.77,9.54,39.47,1017.10,2030.84,3471.97,3282.99,3574.00,500.10,493.99,5.78,0000 0000 0000 0000 000000
2014-05-26 11:39:42,0.02,0.09,0.00,24.78,29.32,31.75,9.51,39.61,1017.10,2030.95,3471.42,3282.94,3573.97,499.92,493.96,5.82,0000 0000 0000 0000 000000
2014-05-26 11:44:43,0.03,0.09,0.00,24.77,29.30,31.71,9.47,39.55,1017.12,2030.94,3471.01,3282.34,3573.48,499.73,493.79,5.86,0000 0000 0000 0000 000000
2014-05-26 11:49:44,0.01,0.10,0.00,24.75,29.29,31.74,9.54,39.57,1017.11,2030.95,3470.95,3282.03,3573.03,500.13,494.24,5.90,0000 0000 0000 0000 000000
2014-05-26 11:54:45,0.01,0.10,0.00,24.73,29.27,31.71,9.47,39.53,1017.11,2030.98,3470.28,3282.01,3573.00,499.50,493.63,5.94,0000 0000 0000 0000 000000
2014-05-26 11:59:46,0.00,0.10,0.00,24.70,29.25,31.67,9.56,39.63,1017.11,2030.99,3470.00,3282.00,3572.98,499.87,493.98,5.99,0000 0000 0000 0000 000000
2014-05-26 12:04:48,0.00,0.10,0.00,24.69,29.24,31.68,9.50,39.55,1017.11,2030.99,3470.00,3281.98,3572.98,500.26,494.40,6.03,0000 0000 0000 0000 000000
2014-05-26 12:09:49,0.02,0.10,0.00,24.67,29.22,31.71,9.55,39.60,1017.11,2031.00,3469.66,3281.92,3572.59,499.94,494.04,6.07,0000 0000 0000 0000 000000
2014-05-26 12:14:50,0.02,0.10,0.00,24.65,29.21,31.65,9.53,39.77,1017.12,2031.00,3469.10,3281.63,3572.10,499.82,494.01,6.11,0000 0000 0000 0000 000000
2014-05-26 12:19:51,0.01,0.10,0.00,24.63,29.20,31.63,9.52,39.67,1017.12,2031.02,3469.01,3281.41,3572.05,500.01,494.47,6.15,0000 0000 0000 0000 000000
2014-05-26 12:24:52,0.01,0.10,0.00,24.62,29.17,31.61,9.53,39.77,1017.12,2031.02,3469.00,3281.10,3572.01,499.80,493.99,6.19,0000 0000 0000 0000 000000
2014-05-26 12:29:53,0.02,0.10,0.00,24.60,29.16,31.61,9.53,39.78,1017.11,2031.21,3468.97,3281.08,3572.00,500.13,494.36,6.24,0000 0000 0000 0000 000000
2014-05-26 12:34:55,0.03,0.10,0.00,24.59,29.14,31.60,9.59,39.95,1017.11,2031.31,3468.39,3281.02,3571.99,500.39,494.81,6.28,0000 0000 0000 0000 000000
2014-05-26 12:39:56,0.05,0.10,0.00,24.56,29.12,31.56,9.50,39.88,1017.11,2031.68,3468.03,3281.00,3571.97,499.34,493.64,6.32,0000 0000 0000 0000 000000
2014-05-26 12:44:57,0.01,0.10,0.00,24.54,29.11,31.56,9.54,39.58,1017.12,2031.90,3468.00,3281.00,3571.89,499.86,494.23,6.36,0000 0000 0000 0000 000000
2014-05-26 12:49:58,0.02,0.10,0.00,24.51,29.09,31.57,9.54,39.81,1017.12,2031.93,3467.87,3280.98,3571.33,500.06,494.41,6.40,0000 0000 0000 0000 000000
2014-05-26 12:54:58,0.02,0.11,0.00,24.50,29.07,31.54,9.54,39.77,1017.11,2031.97,3467.26,3280.89,3571.09,499.81,494.33,6.45,0000 0000 0000 0000 000000
2014-05-26 12:59:59,0.01,0.11,0.00,24.48,29.05,31.50,9.59,39.90,1017.11,2031.97,3467.03,3280.55,3571.01,499.83,494.28,6.49,0000 0000 0000 0000 000000
2014-05-26 13:05:00,0.00,0.11,0.00,24.46,29.04,31.52,9.52,39.67,1017.11,2031.99,3467.00,3280.28,3571.00,499.84,494.33,6.53,0000 0000 0000 0000 000000